Wind_Speed
3 3 3 3 3 4 4 4 5 5 6 6 7 7 7 7 7 7 7 6 6 5 5 4 3 2 2 2 1 1 1 1 1 1 0 0 0 1 1 2 2 3 3
6 5 4 5 5 5 6 6 6 7 7 8 8 9 9 9 9 9 8 8 7 7 6 5 5 4 3 3 3 2 2 2 2 2 1 1 1 1 1 2 2 3 3
7 6 6 7 7 7 7 8 8 8 9 10 10 10 11 11 11 10 10 9 9 8 7 7 6 6 5 4 4 4 3 3 3 3 2 2 1 1 1 1 1 2 2
9 8 8 8 8 9 9 10 10 10 10 11 12 12 12 12 12 12 12 11 11 10 9 9 8 7 7 6 5 4 4 4 4 4 3 3 2 2 2 1 1 0 1
10 9 9 9 9 10 11 11 12 12 12 13 13 13 14 14 14 14 13 13 12 12 11 11 10 9 8 7 6 5 5 5 5 4 4 3 3 3 3 2 1 1 1
10 9 9 10 10 11 12 12 13 13 14 14 15 15 15 15 15 15 15 15 14 14 13 12 11 10 9 8 7 7 6 6 6 5 4 4 4 4 3 3 2 2 2
11 10 10 11 11 12 13 13 14 15 16 16 16 16 16 16 17 17 17 17 16 15 15 14 13 12 11 10 9 8 7 7 7 6 6 5 5 5 5 4 3 3 3
11 11 11 12 13 14 15 15 16 16 17 17 18 18 17 17 18 18 18 19 18 17 16 16 15 14 13 12 11 10 9 8 8 7 7 6 6 6 5 5 5 4 4
12 12 13 13 14 15 15 16 17 18 18 19 19 19 19 19 19 19 20 20 20 19 18 17 16 15 15 14 13 12 11 10 9 8 8 8 7 7 7 6 6 6 5
13 13 14 14 15 16 17 17 18 19 19 20 20 20 20 20 20 20 21 21 21 21 20 19 19 17 17 16 15 13 12 11 11 10 10 10 9 8 8 8 7 7 7
14 14 15 15 16 17 18 19 20 20 21 21 21 22 22 22 22 22 22 22 22 22 22 21 20 19 18 17 16 15 14 13 13 12 12 11 10 10 9 9 9 9 9
14 15 15 16 17 18 19 20 20 20 21 22 23 23 23 23 24 24 24 23 24 24 24 23 22 22 20 19 18 17 16 15 14 14 13 12 11 11 11 11 11 11 11
14 15 16 17 18 18 20 21 21 20 21 22 23 24 25 25 25 25 25 24 24 25 25 24 24 23 22 20 19 18 17 16 15 15 15 14 13 13 13 13 13 13 13
15 16 17 17 18 19 20 20 20 21 21 22 23 24 24 25 26 26 26 26 26 25 25 25 25 24 23 22 20 19 19 18 17 16 16 15 14 15 15 14 14 14 14
16 17 18 19 19 20 21 22 21 22 22 23 24 25 26 25 25 26 26 27 26 26 26 25 25 25 24 24 23 22 21 19 18 18 17 16 16 16 15 15 15 15 15
16 17 18 19 20 21 21 22 22 23 23 23 23 24 26 25 25 26 26 26 27 26 26 26 26 25 24 24 24 23 22 21 20 20 19 18 18 17 16 16 16 17 17
16 17 18 19 21 21 21 22 22 23 22 22 23 23 23 24 25 26 27 27 27 26 25 26 26 27 26 25 24 24 23 22 21 20 20 20 19 18 18 17 17 17 17
17 18 20 20 21 22 23 23 23 23 22 22 23 23 22 22 23 23 24 25 25 25 25 25 25 25 25 24 23 24 24 22 21 21 21 21 20 20 19 19 18 18 18
18 19 20 20 21 22 23 23 24 23 23 23 23 22 22 23 23 24 25 24 24 23 23 23 23 23 24 23 22 23 23 23 22 23 22 21 21 20 20 20 19 19 20
18 19 19 20 20 21 22 23 23 23 23 22 22 22 23 23 24 25 24 24 24 23 23 23 23 23 23 22 22 22 23 23 23 22 22 21 21 20 20 20 20 20 21
18 18 18 19 19 20 21 22 22 22 22 22 22 22 22 23 23 23 24 24 23 24 23 23 22 22 22 21 21 22 23 22 23 24 23 23 22 22 21 21 21 22 21
19 19 19 19 20 21 21 22 23 24 24 24 23 23 23 22 22 23 23 23 23 23 22 22 21 20 20 20 20 21 22 22 22 23 23 23 23 23 23 22 23 23 22
19 19 20 21 21 21 22 22 23 24 24 24 24 24 24 23 22 22 21 21 21 21 21 21 20 20 20 20 20 20 21 21 21 21 21 22 22 22 22 22 22 22 22
19 20 20 21 21 21 21 22 22 23 23 23 23 23 21 21 21 21 21 21 21 20 20 20 20 21 21 21 21 21 21 22 22 22 22 22 22 22 22 23 23 22 22
19 20 21 21 22 22 22 23 23 22 23 23 22 21 21 21 20 20 21 20 20 21 20 20 20 21 21 21 21 22 22 21 22 22 22 22 22 22 23 23 23 23 22
20 20 21 22 23 23 23 23 23 23 23 22 21 21 21 21 21 20 20 20 20 21 21 21 22 22 22 22 22 22 22 22 21 22 22 23 23 23 22 23 23 23 23
Wind_Direction
284 288 281 284 280 273 272 271 274 279 278 280 282 284 287 288 287 288 291 292 296 299 302 302 304 308 312 313 314 312 310 329 337 333 306 267 94 92 93 93 92 93 86
274 280 283 281 276 271 269 270 270 275 277 276 277 278 280 281 282 284 285 287 290 294 294 294 293 296 303 306 308 307 309 321 324 314 297 296 324 34 63 72 77 83 78
279 281 281 279 274 271 271 269 269 270 274 274 274 276 277 277 278 279 280 282 285 288 287 286 287 290 294 298 303 307 309 317 318 311 307 313 316 331 14 54 70 78 76
276 278 277 277 275 272 270 269 267 267 269 270 271 273 274 274 275 275 276 279 282 284 284 284 284 286 288 291 294 297 302 308 312 314 310 309 313 319 326 324 348 33 67
270 274 273 274 276 274 270 269 266 264 266 268 268 268 270 271 272 273 274 277 278 280 281 282 282 284 287 290 292 292 297 302 308 313 308 312 312 307 306 306 310 312 314
267 272 272 273 275 274 270 268 266 263 265 266 265 266 268 268 268 270 272 274 275 276 278 279 279 280 283 286 288 290 291 294 302 306 303 307 307 300 291 291 299 303 300
266 269 270 271 273 274 272 269 267 264 264 264 263 264 265 266 266 266 268 271 272 273 275 276 276 277 279 280 282 285 286 285 291 294 290 293 293 287 281 282 285 289 292
266 269 269 272 274 273 272 272 269 267 265 263 261 262 263 265 265 264 266 268 269 271 272 273 273 275 276 276 277 279 280 281 283 284 283 282 283 275 275 278 278 277 281
266 268 270 274 275 275 276 274 272 269 266 264 263 263 263 264 265 265 264 266 268 269 269 269 270 272 274 275 276 277 277 276 276 279 279 278 275 271 272 278 276 271 272
268 269 272 274 274 276 277 277 275 271 267 266 266 265 264 265 264 265 264 264 265 266 267 268 268 270 271 273 275 277 277 276 274 275 277 277 275 273 272 276 277 272 273
268 270 273 273 274 276 277 276 274 271 269 269 269 267 266 266 265 265 264 263 263 264 265 266 267 267 268 270 272 274 276 276 275 274 276 274 271 268 271 274 274 271 271
268 271 272 276 277 277 278 277 273 272 269 268 269 270 268 265 265 265 265 263 261 262 263 263 263 264 266 267 268 271 273 273 274 275 274 270 270 269 271 273 273 271 269
267 269 271 276 278 278 278 278 273 271 271 271 271 270 267 266 264 263 264 263 262 264 264 261 261 261 263 265 266 267 268 270 271 270 269 271 269 268 268 270 270 270 270
267 271 273 275 278 279 280 279 273 274 277 276 274 272 268 267 265 264 263 261 262 264 265 263 261 261 263 264 264 266 266 266 267 268 269 270 267 267 268 270 269 269 271
269 272 274 276 278 280 280 279 276 279 279 277 275 272 269 269 268 265 265 263 263 264 265 264 262 259 259 261 263 265 267 262 262 266 266 266 265 265 268 268 268 269 272
271 272 274 276 278 280 282 282 279 278 278 278 276 276 271 267 265 266 265 265 263 264 263 260 259 258 258 259 260 261 261 260 261 260 261 263 263 263 264 266 268 270 272
273 275 278 279 280 281 282 279 279 277 277 279 279 277 273 271 266 266 268 265 265 266 263 260 259 258 257 257 258 261 260 261 259 258 259 261 262 263 263 266 268 269 270
278 279 280 280 281 282 284 282 282 281 278 280 281 279 277 273 268 267 269 269 267 267 265 261 260 259 256 255 257 259 257 257 258 258 259 260 263 263 264 267 267 266 268
279 280 281 283 283 283 285 285 285 284 282 284 283 280 278 276 272 271 271 269 265 265 264 261 256 257 253 253 257 257 256 256 259 259 260 262 263 263 263 264 265 266 267
280 283 284 286 286 285 285 286 286 285 285 284 284 282 279 278 275 274 271 267 265 263 260 259 257 256 254 253 255 256 256 256 257 259 260 262 263 263 263 262 263 265 266
281 283 284 287 287 287 288 288 286 286 286 286 286 285 281 277 275 272 269 267 265 263 261 259 255 254 253 251 253 254 253 253 255 258 258 260 261 261 262 262 264 266 267
278 281 283 285 287 287 287 287 288 289 287 286 285 283 280 277 274 270 266 266 262 259 257 255 253 251 250 251 252 250 251 252 255 255 257 258 259 259 260 261 262 265 266
275 278 282 283 285 286 287 287 288 288 287 285 283 282 279 277 273 271 266 265 261 258 255 253 248 247 249 250 252 252 253 252 255 255 257 258 258 259 259 259 261 262 265
276 279 282 283 283 284 285 287 287 288 287 285 284 281 278 276 274 269 266 263 260 256 253 251 248 249 250 251 252 251 251 253 253 255 258 259 259 260 261 260 262 262 265
279 281 283 283 283 283 284 286 286 286 286 285 282 280 279 276 272 267 262 260 256 253 252 251 251 251 251 253 253 252 251 251 251 251 254 258 259 260 261 261 262 263 264
278 281 281 282 283 284 285 286 286 285 286 286 281 277 276 275 273 270 264 259 257 255 253 254 255 254 253 253 254 254 253 253 253 252 253 256 258 260 261 262 263 263 263
Height
5917 5916 5917 5917 5916 5916 5917 5917 5917 5917 5917 5917 5916 5916 5916 5916 5915 5915 5915 5914 5913 5913 5912 5911 5910 5909 5908 5907 5907 5906 5905 5904 5903 5902 5901 5901 5900 5898 5898 5897 5896 5895 5895
5916 5916 5916 5916 5916 5916 5916 5916 5916 5916 5916 5916 5916 5915 5915 5915 5915 5914 5914 5914 5913 5912 5911 5911 5910 5909 5908 5907 5907 5906 5905 5904 5904 5903 5901 5900 5899 5898 5897 5897 5896 5896 5895
5914 5915 5915 5915 5915 5915 5915 5915 5915 5915 5915 5915 5915 5915 5914 5914 5914 5914 5913 5913 5912 5912 5911 5910 5910 5909 5908 5907 5907 5906 5905 5904 5903 5902 5901 5900 5899 5898 5898 5897 5896 5896 5895
5913 5913 5914 5914 5914 5914 5914 5914 5914 5914 5914 5914 5914 5913 5913 5913 5913 5913 5912 5912 5911 5911 5910 5910 5909 5908 5907 5907 5906 5905 5905 5904 5903 5902 5901 5900 5899 5899 5898 5897 5897 5896 5896
5912 5912 5912 5912 5912 5912 5913 5913 5912 5912 5912 5912 5912 5912 5912 5912 5912 5911 5911 5911 5910 5910 5909 5909 5908 5907 5907 5906 5905 5905 5904 5903 5902 5901 5900 5900 5899 5898 5898 5897 5897 5896 5896
5910 5910 5910 5910 5910 5911 5911 5911 5910 5910 5910 5910 5910 5910 5910 5910 5910 5910 5910 5910 5909 5909 5908 5907 5907 5906 5906 5905 5905 5904 5903 5902 5901 5901 5900 5899 5899 5898 5898 5897 5897 5896 5896
5908 5908 5908 5908 5908 5908 5908 5908 5908 5908 5908 5908 5908 5908 5908 5908 5908 5908 5908 5908 5907 5907 5906 5906 5905 5905 5904 5904 5904 5903 5902 5901 5901 5900 5899 5899 5898 5898 5897 5897 5896 5896 5896
5906 5906 5906 5906 5906 5906 5905 5905 5905 5905 5905 5905 5905 5905 5905 5905 5905 5905 5905 5905 5905 5905 5905 5904 5903 5903 5903 5902 5902 5902 5901 5900 5899 5899 5898 5898 5897 5897 5896 5896 5895 5895 5895
5903 5904 5904 5903 5903 5903 5902 5902 5902 5902 5901 5901 5902 5902 5902 5902 5902 5902 5902 5902 5903 5903 5902 5901 5901 5901 5900 5900 5900 5900 5900 5899 5898 5897 5897 5897 5896 5896 5895 5895 5894 5894 5893
5901 5901 5901 5900 5900 5900 5900 5899 5899 5898 5898 5898 5898 5898 5898 5898 5898 5898 5898 5899 5899 5899 5899 5899 5899 5898 5898 5898 5898 5898 5898 5897 5897 5896 5895 5895 5894 5894 5894 5893 5893 5892 5892
5898 5898 5898 5897 5897 5897 5896 5895 5895 5894 5894 5894 5894 5894 5894 5894 5894 5894 5894 5895 5895 5895 5895 5896 5895 5895 5895 5895 5895 5895 5895 5895 5895 5894 5893 5893 5892 5892 5892 5892 5891 5891 5890
5895 5895 5895 5894 5893 5893 5892 5891 5890 5890 5890 5890 5890 5890 5890 5890 5890 5890 5890 5890 5890 5891 5891 5891 5891 5891 5891 5891 5891 5891 5892 5892 5892 5891 5891 5890 5890 5890 5890 5889 5889 5889 5888
5892 5891 5891 5891 5890 5889 5888 5887 5886 5886 5885 5885 5885 5884 5885 5885 5884 5885 5885 5885 5885 5886 5886 5887 5887 5887 5887 5887 5887 5887 5888 5889 5889 5888 5888 5887 5887 5887 5887 5887 5887 5886 5886
5888 5888 5887 5887 5886 5885 5884 5882 5882 5881 5881 5880 5880 5879 5879 5879 5879 5879 5879 5879 5879 5880 5881 5881 5882 5882 5882 5883 5883 5883 5884 5885 5885 5884 5884 5884 5884 5884 5884 5884 5883 5883 5883
5884 5884 5883 5883 5882 5881 5880 5878 5877 5876 5876 5875 5875 5874 5874 5874 5874 5874 5874 5874 5874 5875 5875 5876 5877 5877 5877 5878 5878 5879 5879 5880 5880 5880 5880 5880 5881 5881 5880 5880 5880 5880 5880
5879 5879 5879 5878 5877 5876 5875 5874 5872 5871 5871 5870 5869 5868 5868 5868 5868 5868 5869 5868 5868 5869 5870 5870 5871 5871 5872 5873 5873 5874 5874 5874 5875 5876 5876 5876 5877 5877 5876 5876 5876 5876 5876
5875 5875 5874 5873 5872 5872 5870 5869 5867 5866 5865 5865 5864 5863 5863 5863 5863 5863 5863 5862 5862 5863 5864 5864 5865 5866 5867 5867 5868 5869 5869 5869 5870 5871 5871 5872 5872 5872 5872 5872 5872 5872 5872
5871 5870 5870 5869 5868 5867 5866 5864 5863 5861 5860 5859 5859 5858 5858 5857 5857 5857 5857 5857 5856 5857 5857 5858 5859 5860 5861 5862 5863 5863 5864 5864 5864 5865 5866 5867 5867 5867 5867 5868 5868 5868 5868
5867 5866 5865 5864 5863 5862 5860 5859 5858 5856 5855 5854 5854 5853 5852 5852 5852 5851 5851 5851 5851 5851 5851 5852 5853 5854 5855 5857 5857 5858 5858 5859 5859 5860 5861 5862 5862 5862 5862 5862 5863 5863 5863
5863 5861 5860 5859 5858 5857 5856 5855 5853 5852 5850 5849 5848 5848 5847 5846 5846 5845 5845 5845 5845 5846 5846 5847 5848 5849 5850 5851 5852 5852 5853 5854 5854 5855 5855 5856 5856 5857 5857 5857 5857 5857 5858
5858 5857 5856 5855 5854 5853 5852 5850 5849 5847 5846 5844 5843 5842 5841 5840 5840 5839 5839 5839 5839 5840 5840 5841 5842 5843 5844 5845 5846 5847 5848 5848 5849 5849 5850 5850 5851 5852 5852 5852 5852 5852 5853
5854 5853 5852 5851 5850 5849 5847 5845 5844 5842 5840 5839 5838 5837 5836 5835 5834 5833 5833 5833 5833 5833 5835 5835 5836 5837 5838 5839 5840 5841 5842 5843 5843 5844 5844 5845 5845 5846 5846 5847 5847 5847 5847
5850 5849 5847 5846 5845 5843 5842 5840 5839 5837 5835 5834 5832 5831 5830 5829 5829 5827 5827 5827 5827 5827 5828 5829 5830 5831 5833 5834 5835 5836 5836 5836 5837 5838 5839 5839 5839 5840 5840 5841 5841 5841 5841
5845 5843 5842 5840 5839 5838 5837 5835 5833 5832 5830 5828 5827 5825 5824 5823 5822 5822 5821 5821 5821 5822 5822 5823 5825 5826 5827 5828 5829 5830 5831 5831 5832 5833 5833 5833 5834 5834 5834 5835 5835 5835 5835
5839 5838 5836 5835 5833 5832 5831 5830 5828 5826 5824 5822 5821 5819 5818 5817 5817 5816 5816 5816 5816 5817 5817 5818 5819 5820 5821 5822 5822 5823 5824 5825 5826 5827 5827 5828 5828 5828 5828 5828 5829 5829 5829
5834 5832 5830 5829 5828 5826 5825 5823 5822 5820 5818 5816 5815 5814 5813 5812 5811 5810 5810 5810 5810 5811 5811 5812 5812 5813 5814 5815 5816 5817 5817 5818 5819 5820 5821 5821 5821 5822 5822 5822 5822 5822 5822